(495464) = 2001 QQ221 = 2014 TK63

Discovered at Anderson Mesa on 2001-08-24 by LONEOS.

Orbit

Orbit type: Main Belt

Note: WebGL enabled browser required.

epoch2024-03-31.0
epoch JD2460400.5
perihelion date2022-06-02.80877
perihelion JD2459733.30877
argument of perihelion (°)44.69396
ascending node (°)282.50904
inclination (°)9.11744
eccentricity0.1738730
perihelion distance (AU)2.1313403
Tisserand w.r.t. Jupiter3.4
ΔV w.r.t. Earth (km/sec)9.6
semimajor axis (AU)2.5799184
mean anomaly (°)158.68842
mean daily motion (°/day)0.23784550
aphelion distance (AU)3.028
period (years)4.14
P-vector [x]0.83191988
P-vector [y]-0.54306414
P-vector [z]-0.11397654
Q-vector [x]0.53289597
Q-vector [y]0.72463876
Q-vector [z]0.43694457
absolute magnitude16.26
phase slope0.15
uncertainty0
referenceMPEC 2024-C93
observations used509
oppositions15
arc length (days)9209
first opposition used1998
last opposition used2024
residual rms (arc-secs)0.67
perturbers coarse indicatorM-v
perturbers precise indicator003Ek
first observation date used1998-11-22.0
last observation date used2024-02-08.0
computer nameMPCLINUX
Minimum Orbit Intersection Distances (in AU)
for orbit epoch: 2460200.5, reference: E2024-C93
Mercury1.72593
Venus1.41764
Earth1.12936
Mars0.77224
Jupiter2.30442
Saturn6.15805
Uranus15.4692
Neptune27.2666

Observations

525 total observations over interval: 1998 11 22.23477 – 2024 02 08.301219
These data are available for download (format description).

Date (UT) J2000 RA J2000 Dec Magn Location Ref
1998 11 22.23477 07 59 21.76 +21 08 37.9 20.5 V 950 – La Palma MPS 871562
1998 11 22.24384 07 59 21.68 +21 08 36.8   950 – La Palma MPS 871562
1998 11 22.25304 07 59 21.60 +21 08 35.8   950 – La Palma MPS 871562
2001 08 08.42096 21 09 39.45 -06 08 23.0 19.3   608 – Haleakala-AMOS MPS 871562
2001 08 08.43169 21 09 38.80 -06 08 22.6 18.9   608 – Haleakala-AMOS MPS 871562
2001 08 08.44214 21 09 38.17 -06 08 21.8 18.8   608 – Haleakala-AMOS MPS 871562
2001 08 24.14657 20 55 41.92 -06 03 43.2 18.3 R 699 – Lowell Observatory-LONEOS MPS 34860
2001 08 24.15900 20 55 41.28 -06 03 42.7   699 – Lowell Observatory-LONEOS MPS 34860
2001 08 24.17145 20 55 40.69 -06 03 43.2   699 – Lowell Observatory-LONEOS MPS 34860
2001 08 24.18393 20 55 40.06 -06 03 43.2   699 – Lowell Observatory-LONEOS MPS 34860
2001 08 25.22245 20 54 52.22 -06 04 08.9 20.2   704 – Lincoln Laboratory ETS, New Mexico MPS 34860
2001 08 25.23563 20 54 51.60 -06 04 08.8 19.9   704 – Lincoln Laboratory ETS, New Mexico MPS 34860
2001 08 25.24860 20 54 51.09 -06 04 08.9 20.0   704 – Lincoln Laboratory ETS, New Mexico MPS 34860
2001 08 25.26162 20 54 50.41 -06 04 08.9 19.9   704 – Lincoln Laboratory ETS, New Mexico MPS 34860
2001 09 04.15081 20 48 41.57 -06 11 02.4 18.9   644 – Palomar Mountain/NEAT MPS 312294
2001 09 04.17173 20 48 40.89 -06 11 03.5 18.9   644 – Palomar Mountain/NEAT MPS 312294
2001 09 04.19326 20 48 40.22 -06 11 04.6 18.7   644 – Palomar Mountain/NEAT MPS 312294
2005 06 28.51983 19 37 06.65 -20 48 21.8 19.5   608 – Haleakala-AMOS MPS 871562
2005 06 28.53041 19 37 06.08 -20 48 19.8 19.5   608 – Haleakala-AMOS MPS 871562
2005 06 28.54136 19 37 05.46 -20 48 17.1 19.3   608 – Haleakala-AMOS MPS 871562
2008 01 10.44637 11 13 21.31 -04 40 39.7   291 – LPL/Spacewatch II MPS 871562
2008 01 10.45567 11 13 21.26 -04 40 42.3   291 – LPL/Spacewatch II MPS 871562
2008 01 10.46510 11 13 21.22 -04 40 44.2   291 – LPL/Spacewatch II MPS 871562
2010 12 29.24499 04 00 55.04 +27 02 44.1 20.5 V 703 – Catalina Sky Survey MPS 871562
2010 12 29.25122 04 00 54.75 +27 02 42.8 20.4 V 703 – Catalina Sky Survey MPS 871562
2010 12 29.25748 04 00 54.57 +27 02 41.4 19.7 V 703 – Catalina Sky Survey MPS 871562
2010 12 29.26367 04 00 54.28 +27 02 38.5 20.2 V 703 – Catalina Sky Survey MPS 871562
2011 01 25.15009 03 57 43.27 +24 53 56.3 20.2 V G96 – Mt. Lemmon Survey MPS 871562
2011 01 25.15705 03 57 43.38 +24 53 55.3 20.3 V G96 – Mt. Lemmon Survey MPS 871562
2011 01 25.16403 03 57 43.45 +24 53 54.0 20.4 V G96 – Mt. Lemmon Survey MPS 871562
2011 01 25.17099 03 57 43.59 +24 53 52.6 20.6 V G96 – Mt. Lemmon Survey MPS 871562
2012 02 28.35329 09 57 31.029 +01 16 17.19 20.9 i F51 – Pan-STARRS 1, Haleakala MPS 871562
2012 02 28.35918 09 57 30.711 +01 16 18.53 21.0 i F51 – Pan-STARRS 1, Haleakala MPS 871562
2012 02 28.36215 09 57 30.545 +01 16 19.37 21.1 i F51 – Pan-STARRS 1, Haleakala MPS 871562
2012 02 28.36510 09 57 30.372 +01 16 20.00 21.0 i F51 – Pan-STARRS 1, Haleakala MPS 871562
2012 02 28.36805 09 57 30.220 +01 16 20.62 20.9 i F51 – Pan-STARRS 1, Haleakala MPS 871562
2012 02 28.37104 09 57 30.051 +01 16 21.32 21.1 i F51 – Pan-STARRS 1, Haleakala MPS 871562
2013 06 05.28726 15 58 08.37 -29 34 13.6 19.4 R 926 – Tenagra II Observatory, Nogales MPS 871562
2013 06 05.30677 15 58 07.13 -29 34 05.1 19.3 R 926 – Tenagra II Observatory, Nogales MPS 871562
2013 06 05.32336 15 58 06.14 -29 33 58.7 19.3 R 926 – Tenagra II Observatory, Nogales MPS 871563
2014 10 15.29629 03 33 28.09 +31 45 35.3 19.9 V 703 – Catalina Sky Survey MPS 540750
2014 10 15.30181 03 33 27.82 +31 45 34.2 20.6 V 703 – Catalina Sky Survey MPS 540750
2014 10 15.30736 03 33 27.57 +31 45 35.6 20.3 V 703 – Catalina Sky Survey MPS 540750
2014 10 15.32463 03 33 26.87 +31 45 33.1 20.9 V 703 – Catalina Sky Survey MPS 540750
2014 10 16.30337 03 32 49.93 +31 44 38.2 19.4 R 926 – Tenagra II Observatory, Nogales MPS 540750
2014 10 16.32156 03 32 49.18 +31 44 36.9 20.0 R 926 – Tenagra II Observatory, Nogales MPS 540750
2014 10 16.34015 03 32 48.42 +31 44 35.9 19.4 R 926 – Tenagra II Observatory, Nogales MPS 540750
2014 10 25.43367 03 25 47.23 +31 26 02.3 20.5 r G45 – Space Surveillance Telescope, Atom Site MPS 553373
2014 10 25.45597 03 25 45.96 +31 25 58.5 20.5 r G45 – Space Surveillance Telescope, Atom Site MPS 553373
2014 10 25.47831 03 25 44.71 +31 25 54.0 20.7 r G45 – Space Surveillance Telescope, Atom Site MPS 553373
2014 10 25.48943 03 25 44.12 +31 25 52.2 20.5 r G45 – Space Surveillance Telescope, Atom Site MPS 553373
2014 10 26.44150 03 24 53.15 +31 22 51.3 20.3 r G45 – Space Surveillance Telescope, Atom Site MPS 553373
2014 10 26.44157 03 24 53.14 +31 22 51.2 20.5 r G45 – Space Surveillance Telescope, Atom Site MPS 553373
2014 10 26.45266 03 24 52.57 +31 22 49.4 20.4 r G45 – Space Surveillance Telescope, Atom Site MPS 553373
2014 10 26.45273 03 24 52.50 +31 22 49.3 20.4 r G45 – Space Surveillance Telescope, Atom Site MPS 553373
2014 10 26.49225 03 24 50.29 +31 22 40.1 20.0 r G45 – Space Surveillance Telescope, Atom Site MPS 553373
2014 10 26.50337 03 24 49.67 +31 22 38.3 20.4 r G45 – Space Surveillance Telescope, Atom Site MPS 553373
2014 11 01.33095 03 19 16.24 +30 59 41.8 19.3 V G96 – Mt. Lemmon Survey MPS 547888
2014 11 01.33979 03 19 15.68 +30 59 39.8 19.5 V G96 – Mt. Lemmon Survey MPS 547888
2014 11 01.34862 03 19 15.14 +30 59 37.3 19.5 V G96 – Mt. Lemmon Survey MPS 547888
2014 11 01.35746 03 19 14.56 +30 59 34.9 19.6 V G96 – Mt. Lemmon Survey MPS 547888
2014 11 17.20557 03 02 55.50 +29 23 00.8 18.7 V 703 – Catalina Sky Survey MPS 547888
2014 11 17.21061 03 02 55.22 +29 22 59.7 18.3 V 703 – Catalina Sky Survey MPS 547888
2014 11 17.21567 03 02 55.00 +29 22 56.2 18.7 V 703 – Catalina Sky Survey MPS 547888
2014 11 17.22072 03 02 54.60 +29 22 54.5 19.3 V 703 – Catalina Sky Survey MPS 547888
2014 11 22.47615 02 57 49.436 +28 42 50.03 19.8 w F51 – Pan-STARRS 1, Haleakala MPS 547888
2014 11 22.51327 02 57 47.297 +28 42 32.08 19.7 w F51 – Pan-STARRS 1, Haleakala MPS 547888
2014 11 24.20375 02 56 15.53 +28 29 09.1 19.2 V G96 – Mt. Lemmon Survey MPS 547888
2014 11 24.20910 02 56 15.24 +28 29 06.3 19.8 V 703 – Catalina Sky Survey MPS 547888
2014 11 24.21036 02 56 15.14 +28 29 05.8 19.0 V G96 – Mt. Lemmon Survey MPS 547888
2014 11 24.21415 02 56 14.90 +28 29 03.6 19.8 V 703 – Catalina Sky Survey MPS 547888
2014 11 24.21697 02 56 14.78 +28 29 02.5 19.1 V G96 – Mt. Lemmon Survey MPS 547888
2014 11 24.21919 02 56 14.70 +28 29 02.8 19.9 V 703 – Catalina Sky Survey MPS 547888
2014 11 24.22358 02 56 14.43 +28 28 59.7 19.1 V G96 – Mt. Lemmon Survey MPS 547888
2014 11 24.22424 02 56 14.39 +28 28 59.9 19.5 V 703 – Catalina Sky Survey MPS 547888
2014 11 27.40865 02 53 30.198 +28 03 25.87 19.4 w F51 – Pan-STARRS 1, Haleakala MPS 549806
2014 11 27.42093 02 53 29.563 +28 03 19.86 19.4 w F51 – Pan-STARRS 1, Haleakala MPS 549806
2014 11 27.43320 02 53 28.924 +28 03 13.80 19.4 w F51 – Pan-STARRS 1, Haleakala MPS 549806
2014 11 27.44548 02 53 28.294 +28 03 07.74 19.4 w F51 – Pan-STARRS 1, Haleakala MPS 549806
2014 12 07.39393 02 46 33.798 +26 43 10.24 19.3 i F51 – Pan-STARRS 1, Haleakala MPS 551699
2014 12 07.40647 02 46 33.353 +26 43 04.21 19.3 i F51 – Pan-STARRS 1, Haleakala MPS 551699
2014 12 07.41903 02 46 32.900 +26 42 58.19 19.3 i F51 – Pan-STARRS 1, Haleakala MPS 551699
2014 12 07.43156 02 46 32.461 +26 42 52.20 19.5 i F51 – Pan-STARRS 1, Haleakala MPS 551699
2016 01 04.50409 09 54 19.946 +05 41 29.80 20.9 w F51 – Pan-STARRS 1, Haleakala MPS 665621
2016 01 04.51516 09 54 19.640 +05 41 28.74 20.9 w F51 – Pan-STARRS 1, Haleakala MPS 665621
2016 01 04.52631 09 54 19.338 +05 41 27.87 20.9 w F51 – Pan-STARRS 1, Haleakala MPS 665621
2016 01 04.53746 09 54 19.033 +05 41 26.85 20.7 w F51 – Pan-STARRS 1, Haleakala MPS 665621
2016 01 04.58969 09 54 17.586 +05 41 22.01 20.8 w F51 – Pan-STARRS 1, Haleakala MPS 665621
2016 01 04.60169 09 54 17.247 +05 41 20.85 20.7 w F51 – Pan-STARRS 1, Haleakala MPS 665621
2016 01 04.61374 09 54 16.919 +05 41 19.86 20.7 w F51 – Pan-STARRS 1, Haleakala MPS 665621
2016 01 04.62578 09 54 16.587 +05 41 18.74 20.9 w F51 – Pan-STARRS 1, Haleakala MPS 665621
2016 01 16.53860 09 47 29.060 +05 32 32.56 21.3 w F51 – Pan-STARRS 1, Haleakala MPS 671915
2016 01 16.54979 09 47 28.572 +05 32 32.60 21.0 w F51 – Pan-STARRS 1, Haleakala MPS 671915
2016 02 05.44127 09 30 43.126 +05 56 52.96 21.0 w F51 – Pan-STARRS 1, Haleakala MPS 679251
2016 02 05.45411 09 30 42.373 +05 56 54.66 21.1 w F51 – Pan-STARRS 1, Haleakala MPS 679251
